Flag for Brazil Weather past 2 weeks in Maceió, Alagoas, Brazil

Now
70 °F

Scattered clouds.


Feels Like: 70 °F
Forecast: 73 / 80 °F
Wind: 8 mph from Southeast

Location: Maceio Aeroporto

Current Time: Jul 23, 2014 at 8:41:09 AM

Latest Report: Jul 23, 2014 at 7:00 AM


Visibility: N/A

Pressure: 30.12 "Hg

Humidity: 78%

Dew point: 63 °F

Location of MaceióLocation

Historic Weather in Maceió — Graph

°F

Maceió temperature yesterday

Maximum temperature yesterday: 75 °F (at 11:00 AM)
Minimum temperature yesterday: 64 °F (at 2:00 AM)
Average temperature yesterday: 69 °F

Past Weeks' High & Low Weather Summary

 TemperatureHumidityPressure
High79 °F (Jul 9, 12:00 PM)100% (Jul 8, 7:00 AM)30.15 "Hg (Jul 8, 7:00 AM)
Low63 °F (Jul 21, 2:00 AM)54% (Jul 9, 12:00 PM)29.98 "Hg (Jul 11, 2:00 PM)
Average70 °F84%30.08 "Hg
* Reported Jul 8 7:00 AM — Jul 23 7:00 AM, Maceió, Weather by CustomWeather, © 2014

Note: Actual official high and low records may vary slightly from our data, if they occured in-between our weather recording intervals... More about our weather records

Advertising

Maceió weather history for previous 24 hours

 ConditionsComfort  
Time TempWeatherWind HumidityBarometerVisibility
7:00 AM
Jul 23
70 °FScattered clouds.8 mph78%30.12 "HgN/A
6:00 AM66 °FScattered clouds.5 mph88%30.09 "HgN/A
3:00 AM66 °FPassing clouds.3 mph88%30.09 "HgN/A
2:00 AM66 °FPassing clouds.5 mph88%30.09 "HgN/A
1:00 AM68 °FPassing clouds.7 mph83%30.12 "HgN/A
12:00 AM70 °FPassing clouds.8 mph73%30.15 "HgN/A
11:00 PM
Jul 22
70 °FPassing clouds.9 mph73%30.15 "HgN/A
10:00 PM70 °FPassing clouds.10 mph73%30.15 "HgN/A
9:00 PM70 °FPassing clouds.8 mph73%30.15 "HgN/A
2:00 PM75 °FBroken clouds.16 mph61%30.09 "HgN/A
1:00 PM75 °FScattered clouds.14 mph61%30.09 "HgN/A
12:00 PM75 °FScattered clouds.15 mph57%30.12 "HgN/A
11:00 AM75 °FScattered clouds.14 mph61%30.15 "HgN/A
10:00 AM73 °FScattered clouds.15 mph65%30.15 "HgN/A
9:00 AM72 °FScattered clouds.13 mph69%30.15 "HgN/A
8:00 AM72 °FScattered clouds.10 mph73%30.12 "HgN/A
Weather by CustomWeather, © 2014

See weather overviewHow to use our weather pages